This is the latest recevied weather packets stored in our database for station/object OM1ATS-6. If no packets are shown the sender has not sent any weather packets the latest 10 day(s).
| Time | Temp. | Humidity | Pressure | Rain* | Wind** | Luminosity | Snow |
|---|---|---|---|---|---|---|---|
| 1777967230 | 20° C | 50% | 1012.4 hPa | - | - | - | - |
| 1777966930 | 19.44° C | 52% | 1012.4 hPa | - | - | - | - |
| 1777966630 | 19.44° C | 52% | 1012.9 hPa | - | - | - | - |
| 1777966329 | 18.89° C | 52% | 1012.9 hPa | - | - | - | - |
| 1777966030 | 18.33° C | 52% | 1012.9 hPa | - | - | - | - |
| 1777965730 | 18.33° C | 52% | 1012.9 hPa | - | - | - | - |
| 1777965430 | 18.33° C | 52% | 1012.9 hPa | - | - | - | - |
| 1777965130 | 18.33° C | 53% | 1012.9 hPa | - | - | - | - |
| 1777964829 | 18.33° C | 52% | 1012.9 hPa | - | - | - | - |
| 1777964530 | 18.33° C | 53% | 1012.9 hPa | - | - | - | - |
| 1777964229 | 18.33° C | 54% | 1012.7 hPa | - | - | - | - |
| 1777963929 | 17.78° C | 55% | 1012.7 hPa | - | - | - | - |
| 1777963629 | 17.78° C | 55% | 1012.7 hPa | - | - | - | - |
| 1777963331 | 17.22° C | 56% | 1012.7 hPa | - | - | - | - |
| 1777963029 | 17.22° C | 56% | 1012.8 hPa | - | - | - | - |
| 1777962730 | 16.67° C | 57% | 1012.8 hPa | - | - | - | - |
| 1777962430 | 16.67° C | 57% | 1012.8 hPa | - | - | - | - |
| 1777962130 | 16.67° C | 57% | 1012.8 hPa | - | - | - | - |
| 1777961829 | 16.67° C | 58% | 1012.7 hPa | - | - | - | - |
| 1777961530 | 16.67° C | 58% | 1012.7 hPa | - | - | - | - |
| 1777961230 | 16.11° C | 59% | 1012.7 hPa | - | - | - | - |
| 1777960930 | 15.56° C | 59% | 1012.7 hPa | - | - | - | - |
| 1777960630 | 15.56° C | 59% | 1012.6 hPa | - | - | - | - |
| 1777960329 | 15° C | 60% | 1012.6 hPa | - | - | - | - |
| 1777960029 | 14.44° C | 61% | 1012.6 hPa | - | - | - | - |
* Rain since midnight (hover to see other rain measurements)
** Current wind speed in m/s (hover to see current wind gust speed)